Location: Lac Lasalle
(46.0398°N, 74.1576°W)
Time: 14:08:01
(UTC-05:00)

AO-73 - Pass Details

Date: 19 December 2019
Orbit: 582 x 664 km, 97.6° (Epoch: 28 January)

Event Time Altitude Azimuth Distance (km) Brightness Sun altitude
Rises 05:41:54 0° 22° (NNE) 2,831 ? -18.6°
Reaches altitude 10° 05:44:18 10° 33° (NNE) 1,918 ? -18.2°
Maximum altitude 05:47:58 30° 95° (E) 1,061 ? -17.6°
Drops below altitude 10° 05:51:36 10° 158° (SSE) 1,895 ? -16.9°
Sets 05:53:56 0° 169° (S) 2,791 ? -16.6°
